Dewpoint
53 52 51 50 46 46 44 38 37 46 46 35 34 33 26 31 29 33 21 24 23 20 19 21 21 21 21 26 27 19 21 25 14 8 17 19 19 21 21 32 23 22 17 8
52 52 51 49 46 46 42 41 42 47 43 33 33 31 30 32 23 23 21 24 25 26 23 22 23 23 25 25 27 25 24 23 21 10 16 21 20 26 24 27 23 19 23 8
52 51 50 48 45 47 44 40 33 39 40 38 32 29 28 27 28 24 24 24 28 26 25 25 21 21 24 27 30 34 30 21 26 23 27 24 21 26 23 26 27 19 16 8
52 51 50 47 45 47 43 41 35 39 34 35 33 28 28 22 21 26 26 25 25 24 22 22 22 22 21 22 35 27 28 26 25 25 25 14 15 20 23 21 22 24 7 12
51 50 50 45 44 47 40 35 37 35 36 36 32 32 30 20 22 24 23 25 25 26 24 24 24 24 24 24 23 25 25 25 22 20 24 21 21 17 21 20 18 14 11 10
51 50 49 45 44 46 40 40 39 36 36 36 32 31 30 25 25 30 28 27 27 25 27 28 28 28 28 27 26 25 23 26 22 17 17 13 17 17 19 21 22 20 17 18
50 50 48 44 43 45 43 41 39 37 33 34 31 31 29 26 27 26 29 30 29 29 29 31 29 29 30 29 26 26 23 22 22 21 14 12 14 18 20 20 22 22 18 19
50 49 46 43 44 48 42 44 41 39 34 32 32 31 30 31 32 30 31 34 32 30 30 30 28 28 26 26 28 25 25 25 23 22 15 10 11 20 20 19 15 22 19 23
49 48 46 43 47 48 47 45 44 42 37 33 32 32 32 31 31 32 33 34 33 33 33 32 25 22 24 22 25 26 23 25 24 21 15 13 13 16 21 18 12 25 24 25
48 47 44 45 47 48 47 45 43 39 36 36 35 33 33 33 33 34 32 31 32 33 32 29 25 22 23 21 24 24 24 24 23 20 17 15 16 21 20 12 22 26 26 26
48 46 44 47 48 49 48 43 44 39 37 35 36 36 34 33 35 34 34 34 34 33 29 30 27 25 26 23 24 24 23 24 24 21 21 18 25 21 17 23 28 28 28 28
47 45 46 48 48 48 47 42 42 43 40 38 38 37 37 36 36 35 33 34 31 35 32 31 31 27 27 24 23 26 25 27 27 25 24 28 28 27 28 28 28 28 29 29
46 46 47 48 49 47 45 42 41 41 39 38 37 36 38 41 40 41 36 35 34 32 35 34 32 26 27 25 23 24 25 27 28 25 26 26 27 28 28 28 28 29 30 28
46 47 48 48 47 46 44 41 41 41 39 35 35 38 37 39 42 40 39 38 39 38 36 36 35 32 29 27 27 25 26 28 27 25 27 26 26 26 27 27 27 27 27 27
46 47 47 47 46 46 43 41 41 41 39 35 35 37 37 38 40 39 40 39 37 36 37 35 33 30 30 27 27 25 27 27 26 25 28 27 26 26 26 25 26 26 25 25
47 47 47 46 45 43 40 36 42 40 41 37 34 35 35 37 37 36 35 36 37 36 36 33 32 32 31 30 24 27 28 30 29 28 28 28 28 27 25 25 24 23 22 22
47 46 46 45 44 44 41 39 41 41 41 37 33 33 35 35 35 35 36 35 35 35 33 32 30 30 31 30 23 27 28 29 29 29 27 25 23 22 23 23 22 23 22 21
46 46 45 44 44 42 39 39 42 41 38 37 32 32 33 35 33 34 33 34 34 32 31 31 29 29 29 27 27 27 27 27 26 27 26 24 23 23 21 22 22 22 22 22
46 45 44 43 39 38 37 41 41 40 37 32 32 31 31 33 32 33 34 33 31 30 31 30 29 26 25 25 27 26 26 25 22 22 22 24 24 22 22 21 22 20 18 16
45 43 39 34 36 40 39 37 35 35 35 34 31 32 31 32 31 31 32 32 28 27 27 29 28 24 27 28 27 28 25 23 24 24 23 24 21 21 20 18 17 17 17 18
41 36 35 36 40 35 34 31 31 30 29 30 30 31 29 32 30 29 30 27 27 22 24 25 25 24 26 28 27 25 25 24 25 24 23 21 20 17 15 16 17 18 19 18
37 35 37 37 34 31 26 25 26 26 26 29 30 30 30 31 33 31 30 26 26 16 26 25 22 27 26 25 25 25 24 21 19 18 17 17 17 18 17 18 18 19 20 23
38 35 33 32 29 23 23 19 23 24 28 30 30 30 30 31 31 30 28 25 24 27 25 22 25 25 24 24 23 21 19 19 17 16 17 18 18 20 19 18 20 21 21 22
33 31 28 27 25 25 25 25 25 28 30 30 30 29 31 30 29 27 22 25 26 23 20 20 26 24 23 22 21 19 17 17 17 17 18 18 18 18 21 23 23 22 22 23
31 28 23 24 27 28 28 30 30 31 31 29 29 29 30 27 26 26 25 23 21 22 22 26 26 24 21 20 20 20 22 23 21 20 22 21 20 20 21 22 22 22 21 22
31 30 28 29 28 29 30 30 29 30 29 29 30 25 24 23 24 22 22 20 19 23 25 28 25 22 22 20 20 20 19 19 20 20 21 21 17 19 23 21 22 20 22 22
29 27 28 29 29 29 29 30 29 29 29 26 25 21 19 25 22 20 24 23 22 26 27 25 21 20 19 19 19 19 19 20 20 20 22 23 22 20 21 24 25 25 25 23
Lifted_Index
1 1 1 2 6 11 12 10 9 9 9 9 7 6 7 8 8 7 7 7 8 8 7 7 7 7 9 10 9 8 8 7 5 6 8 9 7 6 5 5 4 4 3 3
2 1 1 3 7 11 12 10 8 9 9 9 7 6 7 7 7 7 7 7 8 8 8 7 7 8 9 10 10 9 8 7 5 5 6 7 6 6 6 5 5 4 3 3
2 1 1 4 9 11 11 9 8 9 10 9 7 5 5 6 7 7 7 8 8 8 7 7 8 8 10 10 10 10 9 7 5 5 6 6 6 5 6 6 5 4 4 4
2 2 1 4 9 11 10 9 8 9 9 8 6 4 4 6 7 8 8 8 8 7 7 7 8 9 9 10 10 10 9 7 6 6 6 6 6 6 6 5 5 5 5 5
3 2 1 4 8 11 10 8 8 8 7 6 5 4 4 6 8 8 8 8 8 8 7 8 9 9 9 9 10 10 9 7 6 6 6 7 6 6 6 6 6 6 6 6
3 2 2 5 9 11 9 8 6 5 5 4 4 5 5 6 8 8 7 7 7 8 8 9 9 10 10 9 10 9 9 7 6 5 6 6 5 6 6 6 6 6 6 7
3 3 3 6 10 11 10 8 6 4 3 4 4 5 6 7 8 7 6 6 7 8 8 9 9 10 10 9 10 10 9 8 6 5 5 5 5 6 7 6 7 7 7 8
3 3 4 7 10 11 10 8 6 4 3 4 6 7 7 8 8 7 6 6 7 8 8 8 8 8 8 9 9 10 9 8 6 5 4 4 6 8 8 7 7 7 8 8
4 3 4 8 10 10 9 8 7 5 4 5 7 8 8 9 8 7 7 7 8 8 8 7 7 7 7 7 8 8 9 8 6 5 4 5 7 9 9 8 7 8 9 9
3 3 5 8 10 10 9 9 8 6 5 6 8 8 8 8 8 8 7 7 8 8 7 7 6 7 7 7 7 7 7 6 6 5 5 6 8 10 9 8 8 9 9 9
3 4 5 8 10 10 9 9 8 7 7 8 9 9 8 9 9 8 7 7 7 8 7 7 7 7 8 7 7 6 6 6 6 6 6 7 10 10 9 9 9 10 10 10
3 4 6 8 10 9 9 9 9 9 9 9 10 10 10 10 9 8 7 7 7 7 7 8 8 8 8 7 7 7 7 7 7 7 8 9 10 11 10 10 10 10 10 10
4 4 7 9 10 9 9 9 9 10 10 10 10 10 10 10 10 8 7 7 7 7 7 7 7 8 8 7 7 8 9 9 9 9 9 10 11 11 11 11 11 11 11 11
4 6 8 10 9 9 9 9 10 10 10 9 9 10 10 10 9 8 7 7 7 7 7 7 7 7 8 8 8 8 9 9 9 9 9 10 10 10 10 11 11 11 11 11
6 8 10 10 9 9 10 10 10 10 9 9 9 10 10 10 9 8 7 6 7 7 7 7 7 7 7 8 8 8 9 9 9 9 9 9 10 10 10 11 11 11 11 11
8 9 10 10 10 10 10 9 10 10 9 9 9 10 10 10 9 8 7 6 6 6 6 7 7 7 7 7 7 8 9 9 9 9 9 9 10 10 11 11 11 12 12 12
10 10 11 10 10 10 10 9 10 10 9 9 9 9 10 10 9 9 8 7 6 6 6 6 7 7 7 7 7 8 9 9 9 9 9 9 10 10 11 12 12 13 13 13
11 11 11 10 10 10 10 10 10 10 9 9 9 9 9 10 9 9 8 7 7 7 6 6 7 7 7 7 8 8 9 10 10 10 10 10 11 11 12 12 13 13 13 14
11 11 10 10 10 10 10 10 10 10 10 10 9 9 9 10 9 9 8 7 7 7 7 7 7 7 8 8 9 10 10 10 10 10 11 11 11 12 13 13 13 14 15 15
11 11 10 10 11 11 11 11 10 10 10 10 10 9 10 10 9 8 8 7 7 7 7 7 7 7 8 9 10 11 11 11 11 11 11 12 12 13 13 14 15 16 17 17
11 11 11 11 12 12 11 11 11 11 11 11 10 10 10 10 9 8 8 8 7 7 7 7 7 7 8 10 11 11 12 12 12 12 12 13 13 14 15 16 17 18 18 19
12 12 12 12 12 11 10 10 11 11 11 11 11 10 10 10 9 8 8 8 7 7 7 7 6 7 9 10 11 12 12 12 13 13 13 14 15 16 17 17 18 19 19 19
11 11 11 11 11 10 9 9 10 11 11 11 11 10 10 10 9 8 8 8 8 8 7 7 7 8 10 12 12 13 13 13 13 14 14 15 17 18 18 19 19 19 19 19
10 10 10 10 10 9 9 9 10 11 11 11 11 10 10 9 9 8 8 8 8 8 7 7 8 10 12 13 13 13 13 13 14 14 16 17 18 18 19 19 19 19 19 19
10 10 9 9 10 10 10 11 11 11 11 11 11 11 10 9 9 9 8 8 7 7 7 8 10 11 12 13 13 13 13 14 15 16 17 18 18 18 19 19 19 19 20 20
10 10 9 10 10 10 11 12 12 12 11 11 11 10 10 10 9 9 8 8 7 8 9 10 11 12 13 13 13 13 14 15 16 18 18 19 19 19 19 19 19 19 19 19
10 10 10 10 10 10 11 12 12 12 12 11 11 10 10 10 9 8 8 8 8 9 10 11 12 13 13 13 13 14 15 16 17 18 19 19 19 19 19 19 19 19 19 19